| time (UTC) | temp C | wind direction | speed KPH | gust KPH | rain 1hr cm | rain 24hr cm | rain mn cm | humidity % | barometer mb |
| 20260502170318 | 15 | 10 | 3.2 | 16.1 | 0.00 | 0.00 | 0.00 | 73 | 1024.1 |
| 20260502164306 | 15 | 47 | 9.7 | 20.9 | 0.00 | 0.00 | 0.00 | 73 | 1023.9 |
| 20260502163802 | 16 | 14 | 3.2 | 16.1 | 0.00 | 0.00 | 0.00 | 73 | 1023.8 |
| 20260502163258 | 16 | 326 | 11.3 | 19.3 | 0.00 | 0.00 | 0.00 | 73 | 1024.1 |
| 20260502162756 | 16 | 330 | 14.5 | 19.3 | 0.00 | 0.00 | 0.00 | 73 | 1023.9 |
| 20260502162253 | 16 | 297 | 9.7 | 19.3 | 0.00 | 0.00 | 0.00 | 73 | 1023.7 |
| 20260502161749 | 16 | 10 | 8.0 | 22.5 | 0.00 | 0.00 | 0.00 | 73 | 1024.0 |
| 20260502161246 | 15 | 342 | 6.4 | 22.5 | 0.00 | 0.00 | 0.00 | 73 | 1023.8 |
| 20260502160744 | 15 | 249 | 9.7 | 17.7 | 0.00 | 0.00 | 0.00 | 73 | 1023.9 |
| 20260502160243 | 15 | 281 | 11.3 | 27.4 | 0.00 | 0.00 | 0.00 | 73 | 1023.7 |
| 20260502152212 | 15 | 253 | 11.3 | 17.7 | 0.00 | 0.00 | 0.00 | 73 | 1023.4 |
| 20260502151709 | 15 | 328 | 17.7 | 20.9 | 0.00 | 0.00 | 0.00 | 73 | 1023.6 |
| 20260502151206 | 15 | 279 | 6.4 | 11.3 | 0.00 | 0.00 | 0.00 | 73 | 1023.5 |
| 20260502150704 | 15 | 270 | 9.7 | 17.7 | 0.00 | 0.00 | 0.00 | 73 | 1023.3 |
| 20260502150200 | 15 | 0 | 11.3 | 14.5 | 0.00 | 0.00 | 0.00 | 73 | 1023.6 |
| 20260502140124 | 13 | 306 | 9.7 | 17.7 | 0.00 | 0.00 | 0.00 | 72 | 1023.3 |
| 20260502130543 | 11 | 336 | 6.4 | 9.7 | 0.00 | 0.00 | 0.00 | 72 | 1023.0 |
| 20260502123526 | 10 | 260 | 0.0 | 4.8 | 0.00 | 0.00 | 0.00 | 72 | 1022.8 |
| 20260502123022 | 9 | 257 | 1.6 | 4.8 | 0.00 | 0.00 | 0.00 | 72 | 1023.0 |
| 20260502122519 | 8 | 263 | 4.8 | 6.4 | 0.00 | 0.00 | 0.00 | 71 | 1022.7 |
| 20260502122017 | 8 | 270 | 3.2 | 4.8 | 0.00 | 0.00 | 0.00 | 71 | 1022.6 |
| 20260502121514 | 7 | 286 | 3.2 | 4.8 | 0.00 | 0.00 | 0.00 | 71 | 1022.7 |
| 20260502121011 | 7 | 259 | 4.8 | 6.4 | 0.00 | 0.00 | 0.00 | 71 | 1022.7 |
| 20260502120508 | 7 | 246 | 4.8 | 6.4 | 0.00 | 0.00 | 0.00 | 71 | 1022.4 |
| 20260502115502 | 7 | 261 | 3.2 | 6.4 | 0.00 | 0.00 | 0.00 | 71 | 1022.4 |
| 20260502114958 | 7 | 270 | 4.8 | 6.4 | 0.00 | 0.00 | 0.00 | 71 | 1022.3 |
| 20260502114455 | 6 | 265 | 6.4 | 6.4 | 0.00 | 0.00 | 0.00 | 71 | 1022.3 |
| 20260502113952 | 6 | 256 | 4.8 | 6.4 | 0.00 | 0.00 | 0.00 | 71 | 1022.4 |
| 20260502113449 | 6 | 236 | 6.4 | 6.4 | 0.00 | 0.00 | 0.00 | 71 | 1022.4 |
| 20260502112948 | 6 | 253 | 6.4 | 6.4 | 0.00 | 0.00 | 0.00 | 71 | 1022.0 |
| 20260502112445 | 6 | 267 | 6.4 | 6.4 | 0.00 | 0.00 | 0.00 | 71 | 1022.4 |
| 20260502111942 | 6 | 265 | 6.4 | 8.0 | 0.00 | 0.00 | 0.00 | 71 | 1022.3 |
| 20260502111440 | 6 | 346 | 0.0 | 4.8 | 0.00 | 0.00 | 0.00 | 71 | 1022.2 |
| 20260502110937 | 6 | 265 | 4.8 | 6.4 | 0.00 | 0.00 | 0.00 | 71 | 1022.2 |
| 20260502110434 | 6 | 252 | 8.0 | 8.0 | 0.00 | 0.00 | 0.00 | 71 | 1022.0 |
| 20260502105931 | 6 | 254 | 6.4 | 6.4 | 0.00 | 0.00 | 0.00 | 71 | 1022.0 |
| 20260502105429 | 6 | 265 | 4.8 | 6.4 | 0.00 | 0.00 | 0.00 | 71 | 1022.0 |
| 20260502104927 | 6 | 270 | 4.8 | 6.4 | 0.00 | 0.00 | 0.00 | 71 | 1022.3 |
| 20260502104424 | 6 | 222 | 4.8 | 8.0 | 0.00 | 0.00 | 0.00 | 71 | 1022.0 |
| 20260502103921 | 6 | 246 | 6.4 | 6.4 | 0.00 | 0.00 | 0.00 | 71 | 1022.0 |
| 20260502103419 | 6 | 264 | 6.4 | 8.0 | 0.00 | 0.00 | 0.00 | 71 | 1022.0 |
| 20260502102915 | 7 | 254 | 8.0 | 8.0 | 0.00 | 0.00 | 0.00 | 71 | 1022.0 |
| 20260502102412 | 7 | 251 | 6.4 | 9.7 | 0.00 | 0.00 | 0.00 | 71 | 1021.7 |
| 20260502101909 | 6 | 265 | 8.0 | 11.3 | 0.00 | 0.00 | 0.00 | 71 | 1021.8 |
| 20260502101408 | 7 | 252 | 8.0 | 9.7 | 0.00 | 0.00 | 0.00 | 71 | 1021.9 |
| 20260502100905 | 7 | 247 | 8.0 | 9.7 | 0.00 | 0.00 | 0.00 | 71 | 1022.0 |
| 20260502100405 | 7 | 270 | 6.4 | 8.0 | 0.00 | 0.00 | 0.00 | 71 | 1021.8 |
| 20260502091338 | 8 | 302 | 4.8 | 4.8 | 0.00 | 0.00 | 0.00 | 71 | 1021.7 |
| 20260502090836 | 7 | 328 | 0.0 | 3.2 | 0.00 | 0.00 | 0.00 | 71 | 1021.5 |
| 20260502090332 | 7 | 344 | 3.2 | 3.2 | 0.00 | 0.00 | 0.00 | 71 | 1021.4 |
| 20260502071227 | 6 | 221 | 0.0 | 4.8 | 0.00 | 0.00 | 0.00 | 71 | 1021.9 |
| 20260502070726 | 6 | 255 | 3.2 | 4.8 | 0.00 | 0.00 | 0.00 | 71 | 1021.8 |
| 20260502070223 | 7 | 254 | 4.8 | 4.8 | 0.00 | 0.00 | 0.00 | 71 | 1021.9 |
| 20260502065721 | 7 | 252 | 4.8 | 6.4 | 0.00 | 0.00 | 0.00 | 71 | 1022.0 |
| 20260502065219 | 7 | 270 | 4.8 | 6.4 | 0.00 | 0.00 | 0.00 | 71 | 1022.2 |
| 20260502064717 | 7 | 253 | 4.8 | 4.8 | 0.00 | 0.00 | 0.00 | 71 | 1022.2 |
| 20260502064214 | 8 | 195 | 0.0 | 1.6 | 0.00 | 0.00 | 0.00 | 71 | 1022.2 |
| 20260502063712 | 7 | 194 | 0.0 | 3.2 | 0.00 | 0.00 | 0.00 | 71 | 1022.3 |
| 20260502063210 | 7 | 259 | 3.2 | 4.8 | 0.00 | 0.00 | 0.00 | 71 | 1022.3 |
| 20260502062706 | 7 | 248 | 3.2 | 4.8 | 0.00 | 0.00 | 0.00 | 71 | 1022.5 |
| 20260502062204 | 8 | 215 | 1.6 | 3.2 | 0.00 | 0.00 | 0.00 | 71 | 1022.3 |
| 20260502061702 | 7 | 191 | 0.0 | 3.2 | 0.00 | 0.00 | 0.00 | 71 | 1022.5 |
| 20260502061159 | 7 | 203 | 0.0 | 1.6 | 0.00 | 0.00 | 0.00 | 71 | 1022.3 |
| 20260502060654 | 7 | 210 | 3.2 | 3.2 | 0.00 | 0.00 | 0.00 | 71 | 1022.5 |
| 20260502060151 | 8 | 205 | 4.8 | 4.8 | 0.00 | 0.00 | 0.00 | 71 | 1022.4 |
| 20260502055649 | 8 | 186 | 1.6 | 1.6 | 0.00 | 0.00 | 0.00 | 71 | 1022.6 |
| 20260502055147 | 8 | 188 | 0.0 | 0.0 | 0.00 | 0.00 | 0.00 | 71 | 1022.5 |
| 20260502054646 | 8 | 188 | 0.0 | 1.6 | 0.00 | 0.00 | 0.00 | 71 | 1022.5 |
| 20260502054142 | 8 | 188 | 0.0 | 0.0 | 0.00 | 0.00 | 0.00 | 71 | 1022.5 |
| 20260502053640 | 8 | 195 | 0.0 | 3.2 | 0.00 | 0.00 | 0.00 | 71 | 1022.5 |
| 20260502053137 | 8 | 209 | 0.0 | 3.2 | 0.00 | 0.00 | 0.00 | 71 | 1022.5 |
| 20260502052635 | 8 | 237 | 1.6 | 3.2 | 0.00 | 0.00 | 0.00 | 71 | 1022.4 |
| 20260502052133 | 8 | 225 | 3.2 | 3.2 | 0.00 | 0.00 | 0.00 | 71 | 1022.5 |
| 20260502051631 | 7 | 260 | 3.2 | 3.2 | 0.00 | 0.00 | 0.00 | 71 | 1022.4 |
| 20260502051129 | 7 | 251 | 3.2 | 4.8 | 0.00 | 0.00 | 0.00 | 71 | 1022.2 |
| 20260502050625 | 7 | 258 | 4.8 | 6.4 | 0.00 | 0.00 | 0.00 | 71 | 1022.2 |
| 20260502050121 | 8 | 279 | 3.2 | 4.8 | 0.00 | 0.00 | 0.00 | 71 | 1022.2 |
| 20260502045618 | 8 | 263 | 4.8 | 4.8 | 0.00 | 0.00 | 0.00 | 71 | 1022.2 |
| 20260502045115 | 7 | 275 | 3.2 | 3.2 | 0.00 | 0.00 | 0.00 | 71 | 1022.4 |
| 20260502044612 | 8 | 270 | 3.2 | 4.8 | 0.00 | 0.00 | 0.00 | 71 | 1022.3 |
| 20260502044108 | 8 | 255 | 4.8 | 6.4 | 0.00 | 0.00 | 0.00 | 71 | 1022.3 |
| 20260502043606 | 8 | 277 | 1.6 | 1.6 | 0.00 | 0.00 | 0.00 | 71 | 1022.2 |
| 20260502043102 | 8 | 294 | 0.0 | 1.6 | 0.00 | 0.00 | 0.00 | 71 | 1022.4 |
| 20260502042557 | 10 | 0 | 3.2 | 3.2 | 0.00 | 0.00 | 0.00 | 72 | 1022.2 |
| 20260502042055 | 10 | 285 | 1.6 | 3.2 | 0.00 | 0.00 | 0.00 | 72 | 1022.6 |
| 20260502041552 | 8 | 328 | 0.0 | 1.6 | 0.00 | 0.00 | 0.00 | 71 | 1022.3 |
| 20260502041049 | 8 | 239 | 3.2 | 3.2 | 0.00 | 0.00 | 0.00 | 71 | 1022.2 |
| 20260502040545 | 8 | 304 | 0.0 | 3.2 | 0.00 | 0.00 | 0.00 | 71 | 1022.5 |
| 20260502040043 | 8 | 264 | 1.6 | 4.8 | 0.00 | 0.00 | 0.00 | 71 | 1022.4 |
| 20260502035538 | 9 | 258 | 4.8 | 4.8 | 0.00 | 0.00 | 0.00 | 71 | 1022.4 |
| 20260502035037 | 9 | 264 | 3.2 | 3.2 | 0.00 | 0.00 | 0.00 | 71 | 1022.5 |
| 20260502034535 | 10 | 258 | 1.6 | 3.2 | 0.00 | 0.00 | 0.00 | 72 | 1022.6 |
| 20260502034032 | 10 | 254 | 0.0 | 0.0 | 0.00 | 0.00 | 0.00 | 72 | 1022.5 |
| 20260502033530 | 10 | 270 | 1.6 | 3.2 | 0.00 | 0.00 | 0.00 | 72 | 1022.8 |
| 20260502033027 | 10 | 262 | 0.0 | 3.2 | 0.00 | 0.00 | 0.00 | 72 | 1022.7 |
| 20260502032523 | 10 | 285 | 0.0 | 3.2 | 0.00 | 0.00 | 0.00 | 72 | 1022.7 |
| 20260502032020 | 10 | 281 | 3.2 | 4.8 | 0.00 | 0.00 | 0.00 | 72 | 1022.7 |
| 20260502031518 | 10 | 270 | 4.8 | 4.8 | 0.00 | 0.00 | 0.00 | 72 | 1022.6 |
| 20260502031016 | 10 | 255 | 3.2 | 6.4 | 0.00 | 0.00 | 0.00 | 72 | 1022.8 |
| 20260502030514 | 10 | 243 | 4.8 | 6.4 | 0.00 | 0.00 | 0.00 | 72 | 1022.8 |
| 20260502030012 | 10 | 261 | 4.8 | 6.4 | 0.00 | 0.00 | 0.00 | 72 | 1022.9 |
| 20260502025509 | 11 | 259 | 4.8 | 6.4 | 0.00 | 0.00 | 0.00 | 72 | 1022.8 |
| 20260502025007 | 11 | 263 | 4.8 | 4.8 | 0.00 | 0.00 | 0.00 | 72 | 1022.9 |
| 20260502024504 | 11 | 265 | 3.2 | 4.8 | 0.00 | 0.00 | 0.00 | 72 | 1022.9 |
| 20260502024003 | 11 | 246 | 3.2 | 4.8 | 0.00 | 0.00 | 0.00 | 72 | 1022.9 |
| 20260502023500 | 11 | 240 | 3.2 | 4.8 | 0.00 | 0.00 | 0.00 | 72 | 1022.9 |
| 20260502022957 | 12 | 243 | 0.0 | 1.6 | 0.00 | 0.00 | 0.00 | 72 | 1022.7 |
| 20260502022453 | 12 | 74 | 0.0 | 1.6 | 0.00 | 0.00 | 0.00 | 72 | 1022.7 |
| 20260502021950 | 12 | 180 | 0.0 | 0.0 | 0.00 | 0.00 | 0.00 | 72 | 1022.6 |
| 20260502021448 | 13 | 195 | 0.0 | 1.6 | 0.00 | 0.00 | 0.00 | 72 | 1022.5 |
| 20260502020944 | 13 | 264 | 3.2 | 3.2 | 0.00 | 0.00 | 0.00 | 72 | 1022.4 |
| 20260502020443 | 13 | 198 | 1.6 | 3.2 | 0.00 | 0.00 | 0.00 | 72 | 1022.6 |
| 20260502015939 | 13 | 203 | 0.0 | 1.6 | 0.00 | 0.00 | 0.00 | 72 | 1022.5 |
| 20260502015437 | 13 | 246 | 0.0 | 0.0 | 0.00 | 0.00 | 0.00 | 72 | 1022.4 |
| 20260502014933 | 13 | 254 | 1.6 | 1.6 | 0.00 | 0.00 | 0.00 | 72 | 1022.2 |
| 20260502014430 | 13 | 262 | 0.0 | 0.0 | 0.00 | 0.00 | 0.00 | 72 | 1022.3 |
| 20260502013927 | 13 | 270 | 0.0 | 3.2 | 0.00 | 0.00 | 0.00 | 72 | 1022.3 |
| 20260502013422 | 13 | 240 | 0.0 | 3.2 | 0.00 | 0.00 | 0.00 | 72 | 1022.2 |
| 20260502012919 | 13 | 270 | 0.0 | 4.8 | 0.00 | 0.00 | 0.00 | 72 | 1022.4 |
| 20260502012417 | 13 | 312 | 3.2 | 6.4 | 0.00 | 0.00 | 0.00 | 72 | 1021.8 |
| 20260502011914 | 14 | 280 | 0.0 | 8.0 | 0.00 | 0.00 | 0.00 | 72 | 1021.9 |
| 20260502011410 | 14 | 35 | 0.0 | 6.4 | 0.00 | 0.00 | 0.00 | 72 | 1021.8 |
| 20260502010908 | 14 | 339 | 3.2 | 6.4 | 0.00 | 0.00 | 0.00 | 72 | 1021.6 |
| 20260502010404 | 14 | 14 | 0.0 | 8.0 | 0.00 | 0.00 | 0.00 | 72 | 1021.6 |
| 20260502005900 | 15 | 26 | 0.0 | 6.4 | 0.00 | 0.00 | 0.00 | 72 | 1021.6 |
| 20260502005358 | 15 | 350 | 6.4 | 9.7 | 0.00 | 0.00 | 0.00 | 72 | 1021.5 |
| 20260502004856 | 15 | 322 | 4.8 | 12.9 | 0.00 | 0.00 | 0.00 | 73 | 1021.4 |
| 20260502004351 | 15 | 126 | 1.6 | 9.7 | 0.00 | 0.00 | 0.00 | 73 | 1021.2 |
| 20260502003849 | 15 | 46 | 9.7 | 9.7 | 0.00 | 0.00 | 0.00 | 73 | 1021.2 |
| 20260502003346 | 15 | 0 | 8.0 | 11.3 | 0.00 | 0.00 | 0.00 | 73 | 1021.1 |
| 20260502002842 | 15 | 286 | 1.6 | 4.8 | 0.00 | 0.00 | 0.00 | 73 | 1020.9 |
| 20260502002340 | 15 | 4 | 3.2 | 11.3 | 0.00 | 0.00 | 0.00 | 73 | 1020.9 |
| 20260502001837 | 16 | 322 | 4.8 | 6.4 | 0.00 | 0.00 | 0.00 | 73 | 1020.7 |
| 20260502001335 | 16 | 337 | 4.8 | 6.4 | 0.00 | 0.00 | 0.00 | 73 | 1020.9 |
| 20260502000832 | 16 | 299 | 0.0 | 11.3 | 0.00 | 0.00 | 0.00 | 73 | 1020.5 |
| 20260502000332 | 16 | 90 | 3.2 | 9.7 | 0.00 | 0.00 | 0.00 | 73 | 1020.8 |
| 20260501235826 | 16 | 23 | 4.8 | 11.3 | 0.00 | 0.00 | 0.00 | 73 | 1020.3 |
| 20260501235322 | 16 | 358 | 4.8 | 17.7 | 0.00 | 0.00 | 0.00 | 73 | 1020.5 |
| 20260501234817 | 16 | 53 | 16.1 | 25.7 | 0.00 | 0.00 | 0.00 | 73 | 1020.4 |
| 20260501234315 | 16 | 15 | 8.0 | 22.5 | 0.00 | 0.00 | 0.00 | 73 | 1020.5 |
| 20260501233813 | 17 | 3 | 8.0 | 12.9 | 0.00 | 0.00 | 0.00 | 73 | 1020.6 |
| 20260501233310 | 17 | 341 | 9.7 | 11.3 | 0.00 | 0.00 | 0.00 | 73 | 1020.6 |
| 20260501232805 | 17 | 34 | 6.4 | 16.1 | 0.00 | 0.00 | 0.00 | 73 | 1020.6 |
| 20260501232305 | 17 | 20 | 6.4 | 8.0 | 0.00 | 0.00 | 0.00 | 73 | 1020.5 |
| 20260501231800 | 17 | 81 | 4.8 | 16.1 | 0.00 | 0.00 | 0.00 | 73 | 1020.4 |
| 20260501231258 | 17 | 53 | 12.9 | 17.7 | 0.00 | 0.00 | 0.00 | 73 | 1020.6 |
| 20260501230756 | 17 | 346 | 6.4 | 12.9 | 0.00 | 0.00 | 0.00 | 73 | 1020.5 |
| 20260501230255 | 17 | 21 | 4.8 | 16.1 | 0.00 | 0.00 | 0.00 | 73 | 1020.5 |
| 20260501225752 | 17 | 30 | 3.2 | 12.9 | 0.00 | 0.00 | 0.00 | 73 | 1020.4 |
| 20260501225250 | 17 | 350 | 4.8 | 9.7 | 0.00 | 0.00 | 0.00 | 73 | 1020.4 |
| 20260501224745 | 17 | 356 | 3.2 | 19.3 | 0.00 | 0.00 | 0.00 | 73 | 1020.2 |
| 20260501224243 | 17 | 5 | 1.6 | 9.7 | 0.00 | 0.00 | 0.00 | 73 | 1020.4 |
| 20260501223739 | 17 | 336 | 11.3 | 12.9 | 0.00 | 0.00 | 0.00 | 73 | 1020.4 |
| 20260501223235 | 17 | 66 | 8.0 | 16.1 | 0.00 | 0.00 | 0.00 | 73 | 1020.3 |
| 20260501222731 | 17 | 34 | 4.8 | 14.5 | 0.00 | 0.00 | 0.00 | 73 | 1020.2 |
| 20260501222229 | 17 | 324 | 12.9 | 17.7 | 0.00 | 0.00 | 0.00 | 73 | 1020.2 |
| 20260501221726 | 17 | 39 | 11.3 | 14.5 | 0.00 | 0.00 | 0.00 | 73 | 1020.0 |
| 20260501221223 | 17 | 45 | 6.4 | 14.5 | 0.00 | 0.00 | 0.00 | 73 | 1020.1 |
| 20260501220720 | 17 | 8 | 0.0 | 12.9 | 0.00 | 0.00 | 0.00 | 73 | 1019.9 |
| 20260501220218 | 17 | 23 | 6.4 | 16.1 | 0.00 | 0.00 | 0.00 | 73 | 1019.7 |
| 20260501215715 | 17 | 8 | 16.1 | 30.6 | 0.00 | 0.00 | 0.00 | 73 | 1019.6 |
| 20260501215210 | 17 | 41 | 11.3 | 27.4 | 0.00 | 0.00 | 0.00 | 73 | 1019.1 |
| 20260501214705 | 17 | 48 | 6.4 | 22.5 | 0.00 | 0.00 | 0.00 | 73 | 1019.3 |
| 20260501214201 | 17 | 25 | 14.5 | 22.5 | 0.00 | 0.00 | 0.00 | 73 | 1019.5 |
| 20260501213657 | 17 | 10 | 3.2 | 17.7 | 0.00 | 0.00 | 0.00 | 73 | 1019.5 |
| 20260501213154 | 17 | 48 | 11.3 | 17.7 | 0.00 | 0.00 | 0.00 | 73 | 1019.7 |
| 20260501212650 | 17 | 8 | 8.0 | 14.5 | 0.00 | 0.00 | 0.00 | 73 | 1019.7 |
| 20260501212147 | 17 | 30 | 11.3 | 24.1 | 0.00 | 0.00 | 0.00 | 73 | 1020.1 |
| 20260501211644 | 18 | 359 | 14.5 | 16.1 | 0.00 | 0.00 | 0.00 | 73 | 1020.2 |
| 20260501211141 | 17 | 274 | 3.2 | 12.9 | 0.00 | 0.00 | 0.00 | 73 | 1020.4 |
| 20260501210638 | 17 | 354 | 4.8 | 14.5 | 0.00 | 0.00 | 0.00 | 73 | 1020.4 |
| 20260501210135 | 17 | 55 | 4.8 | 16.1 | 0.00 | 0.00 | 0.00 | 73 | 1020.6 |
| 20260501205631 | 17 | 305 | 6.4 | 11.3 | 0.00 | 0.00 | 0.00 | 73 | 1020.7 |
| 20260501205129 | 17 | 255 | 14.5 | 19.3 | 0.00 | 0.00 | 0.00 | 73 | 1020.7 |
| 20260501204625 | 17 | 299 | 3.2 | 14.5 | 0.00 | 0.00 | 0.00 | 73 | 1020.9 |
| 20260501204121 | 17 | 117 | 6.4 | 11.3 | 0.00 | 0.00 | 0.00 | 73 | 1021.1 |
| 20260501203618 | 17 | 0 | 12.9 | 16.1 | 0.00 | 0.00 | 0.00 | 73 | 1021.0 |
| 20260501203115 | 17 | 356 | 6.4 | 14.5 | 0.00 | 0.00 | 0.00 | 73 | 1020.9 |
| 20260501202612 | 17 | 330 | 6.4 | 19.3 | 0.00 | 0.00 | 0.00 | 73 | 1021.0 |
| 20260501202109 | 17 | 47 | 9.7 | 14.5 | 0.00 | 0.00 | 0.00 | 73 | 1021.1 |
| 20260501201606 | 17 | 110 | 4.8 | 11.3 | 0.00 | 0.00 | 0.00 | 73 | 1021.4 |
| 20260501201102 | 17 | 90 | 3.2 | 12.9 | 0.00 | 0.00 | 0.00 | 73 | 1021.4 |
| 20260501200559 | 17 | 309 | 14.5 | 17.7 | 0.00 | 0.00 | 0.00 | 73 | 1021.6 |
| 20260501200057 | 17 | 317 | 6.4 | 14.5 | 0.00 | 0.00 | 0.00 | 73 | 1021.6 |
| 20260501195554 | 17 | 358 | 12.9 | 22.5 | 0.00 | 0.00 | 0.00 | 73 | 1021.7 |
| 20260501195049 | 16 | 84 | 14.5 | 22.5 | 0.00 | 0.00 | 0.00 | 73 | 1021.7 |
| 20260501194545 | 17 | 1 | 8.0 | 14.5 | 0.00 | 0.00 | 0.00 | 73 | 1021.8 |
| 20260501194041 | 17 | 312 | 6.4 | 17.7 | 0.00 | 0.00 | 0.00 | 73 | 1022.0 |
| 20260501193539 | 17 | 235 | 4.8 | 14.5 | 0.00 | 0.00 | 0.00 | 73 | 1022.3 |
| 20260501193038 | 17 | 322 | 11.3 | 20.9 | 0.00 | 0.00 | 0.00 | 73 | 1022.2 |
| 20260501192533 | 17 | 353 | 4.8 | 12.9 | 0.00 | 0.00 | 0.00 | 73 | 1022.2 |
| 20260501192032 | 17 | 216 | 6.4 | 8.0 | 0.00 | 0.00 | 0.00 | 73 | 1022.3 |
| 20260501191528 | 16 | 236 | 0.0 | 14.5 | 0.00 | 0.00 | 0.00 | 73 | 1022.4 |
| 20260501191026 | 16 | 285 | 11.3 | 17.7 | 0.00 | 0.00 | 0.00 | 73 | 1022.4 |
| 20260501190521 | 16 | 266 | 22.5 | 22.5 | 0.00 | 0.00 | 0.00 | 73 | 1022.5 |
| 20260501190017 | 16 | 312 | 6.4 | 17.7 | 0.00 | 0.00 | 0.00 | 73 | 1022.5 |
| 20260501185513 | 16 | 90 | 6.4 | 12.9 | 0.00 | 0.00 | 0.00 | 73 | 1022.6 |
| 20260501185009 | 15 | 294 | 3.2 | 11.3 | 0.00 | 0.00 | 0.00 | 73 | 1022.9 |
| 20260501184505 | 16 | 256 | 14.5 | 19.3 | 0.00 | 0.00 | 0.00 | 73 | 1023.0 |
| 20260501184000 | 16 | 281 | 19.3 | 29.0 | 0.00 | 0.00 | 0.00 | 73 | 1022.8 |
| 20260501183458 | 16 | 265 | 16.1 | 22.5 | 0.00 | 0.00 | 0.00 | 73 | 1022.9 |
| 20260501182953 | 16 | 57 | 3.2 | 9.7 | 0.00 | 0.00 | 0.00 | 73 | 1023.2 |
| 20260501182451 | 16 | 8 | 8.0 | 16.1 | 0.00 | 0.00 | 0.00 | 73 | 1023.2 |
| 20260501181947 | 16 | 132 | 3.2 | 9.7 | 0.00 | 0.00 | 0.00 | 73 | 1023.3 |
| 20260501181445 | 16 | 76 | 8.0 | 9.7 | 0.00 | 0.00 | 0.00 | 73 | 1023.2 |
| 20260501180942 | 16 | 66 | 6.4 | 11.3 | 0.00 | 0.00 | 0.00 | 73 | 1023.1 |
| 20260501180439 | 16 | 35 | 0.0 | 14.5 | 0.00 | 0.00 | 0.00 | 73 | 1023.1 |
| 20260501175935 | 15 | 212 | 3.2 | 4.8 | 0.00 | 0.00 | 0.00 | 73 | 1023.3 |
| 20260501175432 | 16 | 285 | 9.7 | 14.5 | 0.00 | 0.00 | 0.00 | 73 | 1023.2 |
| 20260501174929 | 16 | 267 | 6.4 | 14.5 | 0.00 | 0.00 | 0.00 | 73 | 1023.3 |
| 20260501174427 | 15 | 69 | 8.0 | 11.3 | 0.00 | 0.00 | 0.00 | 73 | 1023.1 |
| 20260501173924 | 15 | 6 | 6.4 | 8.0 | 0.00 | 0.00 | 0.00 | 73 | 1023.1 |
| 20260501173421 | 15 | 41 | 3.2 | 12.9 | 0.00 | 0.00 | 0.00 | 73 | 1023.0 |